Theta_e
343 343 340 342 340 343 342 341 341 341 340 340 345 342 341 340 338 335 331 327 326 328
344 343 344 342 343 342 346 345 345 344 342 342 342 344 343 340 335 333 330 327 328 328
345 345 345 344 342 342 346 347 346 345 345 344 346 343 342 337 333 332 328 330 329 324
347 347 345 343 343 343 347 347 346 346 346 345 344 341 339 335 333 331 330 329 325 322
347 347 346 345 342 344 345 347 347 347 346 346 344 341 336 335 333 332 330 326 323 319
344 345 344 345 343 339 342 345 345 346 345 346 343 337 336 334 333 331 327 324 322 317
338 343 343 341 335 335 336 333 334 337 344 341 337 335 334 332 330 327 325 322 320 315
324 335 337 332 330 331 331 331 332 335 335 338 335 335 331 328 325 321 316 314 313 310
325 333 334 332 330 330 328 328 330 330 331 329 332 313 318 323 320 317 312 309 307 309
325 327 333 334 331 330 327 328 327 327 326 326 328 311 312 316 322 315 310 306 303 303
325 327 333 333 332 332 328 326 326 325 326 327 326 307 306 311 315 311 307 304 303 301
328 329 330 331 332 330 327 326 325 326 323 323 317 305 303 312 311 306 304 304 302 301
323 326 330 326 329 327 326 326 326 325 324 317 309 302 303 309 308 305 301 299 298 299
320 325 327 327 325 327 328 324 322 318 318 315 310 304 300 302 307 303 301 296 294 294
Wind_Speed
17 12 12 12 12 11 12 13 13 14 13 14 12 9 7 5 5 6 6 8 4 4
16 13 13 14 12 10 11 10 14 16 15 15 11 10 10 6 7 7 5 5 6 4
20 19 16 9 13 8 9 13 15 18 17 12 12 10 10 7 8 10 5 2 7 4
18 19 15 11 10 8 13 16 18 18 15 13 13 12 10 10 9 10 7 5 4 5
19 17 15 15 10 13 14 14 16 16 17 16 16 15 16 14 13 12 9 7 4 4
16 14 15 14 13 11 12 11 9 13 18 17 17 15 14 15 14 14 9 8 5 4
5 10 11 10 10 12 9 10 7 6 8 13 15 14 13 13 13 14 12 7 6 6
6 4 7 10 11 11 12 11 10 11 6 10 22 15 15 13 12 10 12 6 7 6
7 4 10 11 13 14 14 14 15 12 12 22 10 10 21 21 18 15 13 9 7 6
8 9 8 12 12 13 16 15 12 15 15 16 19 31 26 24 17 19 19 14 11 7
8 7 8 14 14 14 13 14 14 11 11 13 11 21 20 21 17 16 17 14 12 10
9 7 6 13 16 13 14 12 13 14 13 14 14 22 20 19 15 13 12 11 13 10
5 5 11 8 13 13 14 15 11 12 12 14 14 19 22 19 13 13 10 7 9 11
3 6 5 10 9 11 11 11 10 11 11 16 18 17 22 19 12 12 11 8 7 4
Wind_Direction
205 206 208 197 198 192 193 190 185 190 190 200 198 188 169 161 146 146 145 152 147 139
203 201 206 206 205 198 191 184 175 185 192 197 190 178 172 157 135 138 139 148 136 125
203 206 209 196 204 193 176 185 184 193 193 182 180 168 153 137 135 130 117 122 124 108
202 203 205 202 183 180 189 191 186 189 181 172 171 151 138 128 124 115 106 102 133 124
203 196 195 195 176 192 195 200 193 185 185 179 167 158 147 142 137 131 131 117 134 123
206 195 199 188 181 191 195 190 206 199 204 183 163 146 136 131 133 120 107 128 145 150
259 224 190 171 159 170 158 135 144 203 195 145 112 122 122 126 120 118 120 117 134 157
329 250 168 147 150 148 138 134 123 109 98 170 128 122 131 117 109 97 96 107 113 124
333 276 168 157 157 152 146 144 134 131 151 115 110 147 137 142 140 142 126 144 125 128
311 331 172 155 161 163 157 157 155 153 152 151 154 155 174 152 163 148 157 149 138 146
279 317 162 159 170 167 162 158 160 166 167 166 172 153 151 148 137 146 143 142 140 134
268 99 186 183 164 159 161 162 168 162 158 170 161 153 144 126 127 131 121 128 124 137
267 149 169 174 171 163 167 167 164 162 161 147 142 143 123 129 128 124 118 112 109 119
250 113 154 137 169 157 153 141 135 122 125 134 140 138 125 124 130 132 131 133 117 122